GW7243 Weather Reports


Display with metric or nautical units.
time (UTC)temp
F
wind
direction
speed
MPH
gust
MPH
rain 1hr
in
rain 24hr
in
rain mn
in
humidity
%
barometer
mb
20260508073304 59 230 4.0 6.0 0.00 0.00 0.00 72 1011.9
20260508072804 59 216 4.0 6.0 0.00 0.00 0.00 72 1011.8
20260508072307 59 178 2.0 5.0 0.00 0.00 0.00 72 1011.9
20260508071304 58 209 2.0 5.0 0.00 0.00 0.00 73 1011.8
20260508070803 58 167 3.0 6.0 0.00 0.00 0.00 73 1011.8
20260508070304 58 119 3.0 7.0 0.00 0.00 0.00 74 1011.7
20260508065804 58 184 5.0 6.0 0.00 0.00 0.00 73 1011.8
20260508065306 58 182 3.0 6.0 0.00 0.00 0.00 74 1011.7
20260508064804 58 267 2.0 5.0 0.00 0.00 0.00 74 1011.7
20260508064305 58 179 2.0 5.0 0.00 0.00 0.00 74 1011.6
20260508063804 58 214 4.0 6.0 0.00 0.00 0.00 74 1011.6
20260508062804 58 178 5.0 9.0 0.00 0.00 0.00 75 1011.7
20260508062306 57 189 4.0 7.0 0.00 0.00 0.00 76 1011.7
20260508061804 57 216 5.0 6.0 0.00 0.00 0.00 76 1011.7
20260508061303 57 247 3.0 5.0 0.00 0.00 0.00 76 1011.6
20260508060804 57 234 3.0 5.0 0.00 0.00 0.00 76 1011.4
20260508055306 56 258 2.0 2.0 0.00 0.00 0.00 78 1011.4
20260508054804 56 175 2.0 3.0 0.00 0.00 0.00 79 1011.4
20260508054304 56 202 3.0 3.0 0.00 0.00 0.00 79 1011.4
20260508053803 56 233 2.0 5.0 0.00 0.00 0.00 79 1011.4
20260508053304 56 231 3.0 6.0 0.00 0.00 0.00 78 1011.5
20260508052306 56 192 3.0 7.0 0.00 0.00 0.00 78 1011.0
20260508050804 56 221 1.0 3.0 0.00 0.00 0.00 78 1010.9
20260508050305 56 191 2.0 6.0 0.00 0.00 0.00 78 1010.7
20260508045804 56 215 4.0 6.0 0.00 0.00 0.00 78 1010.7
20260508045307 56 217 3.0 5.0 0.00 0.00 0.00 78 1010.7
20260508044804 56 243 3.0 6.0 0.00 0.00 0.00 77 1010.7
20260508044304 57 211 6.0 8.0 0.00 0.00 0.00 76 1010.8
20260508043804 57 207 5.0 7.0 0.00 0.00 0.00 76 1010.5
20260508043304 57 202 3.0 6.0 0.00 0.00 0.00 75 1010.4
20260508042805 57 205 3.0 5.0 0.00 0.00 0.00 75 1010.4
20260508042307 57 192 3.0 7.0 0.00 0.00 0.00 76 1010.2
20260508041804 57 175 3.0 3.0 0.00 0.00 0.00 76 1010.1
20260508040804 57 210 3.0 5.0 0.00 0.00 0.00 76 1010.4
20260508040304 57 174 3.0 6.0 0.00 0.00 0.00 76 1010.5
20260508035306 57 191 4.0 6.0 0.00 0.00 0.00 77 1010.4
20260508034804 57 198 5.0 6.0 0.00 0.00 0.00 76 1010.5
20260508034304 57 199 5.0 7.0 0.00 0.00 0.00 76 1010.4
20260508033804 57 173 4.0 7.0 0.00 0.00 0.00 76 1010.4
20260508032306 57 165 3.0 6.0 0.00 0.00 0.00 75 1010.4
20260508031304 57 147 2.0 5.0 0.00 0.00 0.00 75 1010.4
20260508030804 57 154 3.0 7.0 0.00 0.00 0.00 75 1010.5
20260508030304 57 186 3.0 5.0 0.00 0.00 0.00 75 1010.7
20260508025306 57 179 3.0 6.0 0.00 0.00 0.00 74 1010.8
20260508024804 57 180 4.0 6.0 0.00 0.00 0.00 75 1010.7
20260508024304 57 182 3.0 6.0 0.00 0.00 0.00 75 1010.8
20260508023804 58 184 4.0 5.0 0.00 0.00 0.00 74 1010.7
20260508023304 58 181 3.0 8.0 0.00 0.00 0.00 74 1010.7
20260508022804 58 185 5.0 8.0 0.00 0.00 0.00 74 1010.9
20260508022307 58 182 4.0 7.0 0.00 0.00 0.00 74 1010.7
20260508021804 58 188 4.0 6.0 0.00 0.00 0.00 74 1010.8
20260508020804 58 185 3.0 3.0 0.00 0.00 0.00 74 1010.7
20260508020304 58 167 3.0 6.0 0.00 0.00 0.00 74 1010.9
20260508015804 58 184 3.0 6.0 0.00 0.00 0.00 74 1010.7
20260508015306 58 169 1.0 5.0 0.00 0.00 0.00 74 1010.8
20260508014804 58 213 4.0 5.0 0.00 0.00 0.00 74 1010.8
20260508014303 58 215 3.0 6.0 0.00 0.00 0.00 75 1010.8
20260508013804 58 218 4.0 6.0 0.00 0.00 0.00 75 1010.9
20260508013304 58 207 4.0 5.0 0.00 0.00 0.00 74 1011.1
20260508012804 58 202 3.0 6.0 0.00 0.00 0.00 74 1011.1
20260508012307 58 217 4.0 6.0 0.00 0.00 0.00 74 1011.2
20260508011804 58 189 3.0 6.0 0.00 0.00 0.00 74 1010.9
20260508011304 58 206 3.0 6.0 0.00 0.00 0.00 74 1011.3
20260508010804 58 193 4.0 5.0 0.00 0.00 0.00 74 1011.3
20260508005804 58 200 3.0 6.0 0.00 0.00 0.00 75 1011.1
20260508005306 58 216 4.0 6.0 0.00 0.00 0.00 75 1011.0
20260508004804 58 210 3.0 6.0 0.00 0.00 0.00 76 1011.3
20260508004303 58 205 3.0 6.0 0.00 0.00 0.00 76 1011.4
20260508003304 58 247 3.0 6.0 0.00 0.00 0.00 76 1011.3
20260508002804 58 234 3.0 5.0 0.00 0.00 0.00 75 1011.2
20260508002306 59 202 4.0 6.0 0.00 0.00 0.00 74 1011.2
20260508001804 59 192 5.0 7.0 0.00 0.00 0.00 74 1011.1
20260508000804 59 185 5.0 6.0 0.00 0.00 0.00 74 1011.2
20260508000305 59 196 4.0 7.0 0.00 0.00 0.00 73 1011.0
20260507235804 59 210 4.0 5.0 0.00 0.00 0.00 73 1011.2
20260507235306 59 197 4.0 6.0 0.00 0.00 0.00 73 1011.4
20260507234804 59 205 6.0 7.0 0.00 0.00 0.00 72 1011.6
20260507234304 59 188 5.0 7.0 0.00 0.00 0.00 72 1011.4
20260507233804 59 210 6.0 7.0 0.00 0.00 0.00 71 1011.4
20260507233304 60 197 5.0 6.0 0.00 0.00 0.00 71 1011.3
20260507232804 59 184 3.0 6.0 0.00 0.00 0.00 71 1011.1
20260507232306 59 183 4.0 6.0 0.00 0.00 0.00 71 1011.3
20260507231804 59 207 3.0 5.0 0.00 0.00 0.00 71 1011.3
20260507230804 59 182 3.0 6.0 0.00 0.00 0.00 72 1011.3
20260507230304 59 199 5.0 7.0 0.00 0.00 0.00 72 1011.5
20260507224804 59 197 3.0 5.0 0.00 0.00 0.00 72 1011.5
20260507224304 59 199 5.0 7.0 0.00 0.00 0.00 72 1011.8
20260507223304 59 202 5.0 6.0 0.00 0.00 0.00 72 1011.9
20260507222306 59 201 5.0 7.0 0.00 0.00 0.00 71 1012.0
20260507221804 59 199 4.0 6.0 0.00 0.00 0.00 70 1011.8
20260507221304 59 191 4.0 6.0 0.00 0.00 0.00 70 1012.0
20260507220804 59 195 4.0 6.0 0.00 0.00 0.00 70 1012.0
20260507220304 59 191 5.0 6.0 0.00 0.00 0.00 70 1011.9
20260507215804 59 183 5.0 6.0 0.00 0.00 0.00 70 1011.8
20260507215306 59 195 5.0 7.0 0.00 0.00 0.00 69 1011.8
20260507214804 59 192 5.0 5.0 0.00 0.00 0.00 68 1012.0
20260507213804 60 234 2.0 6.0 0.00 0.00 0.00 67 1011.6
20260507213304 60 238 3.0 6.0 0.00 0.00 0.00 66 1011.9
20260507212804 60 239 3.0 6.0 0.00 0.00 0.00 65 1011.9
20260507211804 60 241 4.0 5.0 0.00 0.00 0.00 64 1011.8
20260507210804 60 255 4.0 6.0 0.00 0.00 0.00 63 1011.8
20260507210304 60 242 5.0 6.0 0.00 0.00 0.00 63 1011.5
20260507204304 62 266 5.0 7.0 0.00 0.00 0.00 61 1011.3
20260507203804 62 264 5.0 8.0 0.00 0.00 0.00 60 1011.2
20260507203304 62 281 6.0 9.0 0.00 0.00 0.00 60 1011.1
20260507202804 62 273 5.0 7.0 0.00 0.00 0.00 60 1011.1
20260507202306 62 255 6.0 9.0 0.00 0.00 0.00 60 1011.2
20260507201803 62 266 6.0 9.0 0.00 0.00 0.00 59 1011.2
20260507201304 62 277 8.0 12.0 0.00 0.00 0.00 59 1011.2
20260507200805 62 272 8.0 12.0 0.00 0.00 0.00 59 1011.4
20260507200303 62 259 7.0 10.0 0.00 0.00 0.00 59 1011.2
20260507195804 62 255 7.0 10.0 0.00 0.00 0.00 59 1011.2
20260507195306 62 262 7.0 9.0 0.00 0.00 0.00 59 1011.2
20260507194804 62 252 5.0 8.0 0.00 0.00 0.00 59 1011.1
20260507194303 62 253 5.0 8.0 0.00 0.00 0.00 59 1011.2
20260507193804 63 234 6.0 10.0 0.00 0.00 0.00 59 1011.0
20260507193304 63 244 7.0 12.0 0.00 0.00 0.00 59 1011.0
20260507192803 63 259 7.0 12.0 0.00 0.00 0.00 59 1010.7
20260507191304 63 247 7.0 14.0 0.00 0.00 0.00 58 1010.8
20260507190803 64 241 8.0 15.0 0.00 0.00 0.00 57 1010.7
20260507190304 64 244 12.0 16.0 0.00 0.00 0.00 56 1010.7
20260507185804 64 248 10.0 14.0 0.00 0.00 0.00 55 1010.8
20260507184804 65 240 10.0 17.0 0.00 0.00 0.00 55 1010.6
20260507184304 65 236 9.0 14.0 0.00 0.00 0.00 53 1010.3
20260507183304 66 244 13.0 17.0 0.00 0.00 0.00 52 1010.4
20260507182804 66 241 12.0 20.0 0.00 0.00 0.00 52 1010.3
20260507182306 66 230 9.0 18.0 0.00 0.00 0.00 52 1010.1
20260507181803 66 241 10.0 16.0 0.00 0.00 0.00 51 1010.1
20260507181304 66 237 12.0 17.0 0.00 0.00 0.00 51 1010.0
20260507180804 67 234 13.0 18.0 0.00 0.00 0.00 51 1009.8
20260507175804 68 240 9.0 17.0 0.00 0.00 0.00 50 1010.0
20260507175307 68 239 11.0 17.0 0.00 0.00 0.00 50 1009.8
20260507174304 68 228 13.0 16.0 0.00 0.00 0.00 50 1009.8
20260507173804 68 220 12.0 17.0 0.00 0.00 0.00 49 1009.6
20260507173303 68 245 13.0 17.0 0.00 0.00 0.00 48 1009.6
20260507172804 68 219 12.0 20.0 0.00 0.00 0.00 49 1009.5
20260507172307 68 234 10.0 16.0 0.00 0.00 0.00 48 1009.5
20260507171304 69 236 14.0 21.0 0.00 0.00 0.00 47 1009.6
20260507165804 69 215 14.0 20.0 0.00 0.00 0.00 46 1009.5
20260507165306 70 242 11.0 17.0 0.00 0.00 0.00 45 1009.3
20260507164804 69 244 13.0 18.0 0.00 0.00 0.00 45 1009.3
20260507164304 70 231 12.0 17.0 0.00 0.00 0.00 45 1009.3
20260507163304 70 256 11.0 21.0 0.00 0.00 0.00 43 1009.2
20260507162804 70 218 9.0 17.0 0.00 0.00 0.00 43 1009.0
20260507162307 70 225 13.0 17.0 0.00 0.00 0.00 43 1009.0
20260507161305 70 208 10.0 18.0 0.00 0.00 0.00 43 1009.0
20260507160804 71 202 12.0 16.0 0.00 0.00 0.00 42 1009.1
20260507160304 71 245 12.0 16.0 0.00 0.00 0.00 41 1009.1
20260507155804 71 240 10.0 16.0 0.00 0.00 0.00 42 1009.2
20260507155306 71 232 14.0 21.0 0.00 0.00 0.00 44 1009.1
20260507154804 71 215 13.0 17.0 0.00 0.00 0.00 43 1009.1
20260507154305 71 236 16.0 23.0 0.00 0.00 0.00 42 1009.1
20260507153304 71 216 13.0 18.0 0.00 0.00 0.00 39 1009.1
20260507152804 71 218 11.0 16.0 0.00 0.00 0.00 40 1009.1
20260507151804 71 226 9.0 16.0 0.00 0.00 0.00 38 1009.2
20260507151304 71 235 11.0 15.0 0.00 0.00 0.00 40 1009.2
20260507150804 71 225 12.0 17.0 0.00 0.00 0.00 41 1009.3
20260507150304 71 263 5.0 16.0 0.00 0.00 0.00 39 1009.3
20260507145804 71 259 13.0 16.0 0.00 0.00 0.00 41 1009.4
20260507145306 71 215 12.0 15.0 0.00 0.00 0.00 39 1009.3
20260507144804 70 224 12.0 18.0 0.00 0.00 0.00 39 1009.4
20260507143804 71 231 14.0 20.0 0.00 0.00 0.00 40 1009.6
20260507143304 71 258 9.0 14.0 0.00 0.00 0.00 43 1009.4
20260507142804 70 230 12.0 16.0 0.00 0.00 0.00 43 1009.7
20260507141304 70 217 13.0 20.0 0.00 0.00 0.00 47 1009.7
20260507140804 69 231 13.0 16.0 0.00 0.00 0.00 48 1009.8
20260507140304 69 229 12.0 16.0 0.00 0.00 0.00 48 1009.8
20260507135804 69 232 12.0 15.0 0.00 0.00 0.00 47 1009.7
20260507135306 70 236 15.0 18.0 0.00 0.00 0.00 47 1009.9
20260507134804 70 254 10.0 14.0 0.00 0.00 0.00 46 1009.9
20260507134304 70 238 12.0 17.0 0.00 0.00 0.00 47 1009.9
20260507133303 69 200 11.0 17.0 0.00 0.00 0.00 49 1010.0
20260507132804 70 202 10.0 20.0 0.00 0.00 0.00 49 1010.4
20260507132307 70 235 10.0 15.0 0.00 0.00 0.00 48 1009.9
20260507131804 69 235 11.0 17.0 0.00 0.00 0.00 48 1010.1
20260507131304 69 229 12.0 17.0 0.00 0.00 0.00 47 1010.2
20260507130804 68 222 11.0 17.0 0.00 0.00 0.00 50 1010.4
20260507130304 69 209 12.0 18.0 0.00 0.00 0.00 48 1010.2
20260507125804 69 229 9.0 14.0 0.00 0.00 0.00 50 1010.4
20260507125306 68 205 11.0 16.0 0.00 0.00 0.00 48 1010.3
20260507124804 69 234 12.0 17.0 0.00 0.00 0.00 48 1010.5
20260507124303 69 209 9.0 14.0 0.00 0.00 0.00 49 1010.5
20260507122804 69 191 13.0 17.0 0.00 0.00 0.00 49 1010.6
20260507121803 69 204 14.0 21.0 0.00 0.00 0.00 51 1010.5
20260507121304 69 232 11.0 20.0 0.00 0.00 0.00 51 1010.6
20260507120804 69 202 12.0 21.0 0.00 0.00 0.00 52 1010.9
20260507120304 69 219 10.0 21.0 0.00 0.00 0.00 52 1010.6
20260507115804 70 195 12.0 16.0 0.00 0.00 0.00 50 1010.8
20260507115307 69 188 12.0 17.0 0.00 0.00 0.00 52 1010.8
20260507114804 69 199 12.0 16.0 0.00 0.00 0.00 52 1010.7
20260507114304 69 190 10.0 16.0 0.00 0.00 0.00 51 1010.6
20260507113804 68 212 11.0 17.0 0.00 0.00 0.00 52 1010.9
20260507113304 70 230 11.0 14.0 0.00 0.00 0.00 50 1011.0
20260507112804 68 186 11.0 17.0 0.00 0.00 0.00 53 1011.0
20260507112306 68 200 10.0 17.0 0.00 0.00 0.00 53 1010.9
20260507111804 68 189 12.0 17.0 0.00 0.00 0.00 54 1011.0
20260507111304 68 195 9.0 13.0 0.00 0.00 0.00 53 1011.0
20260507110804 68 192 13.0 17.0 0.00 0.00 0.00 53 1010.9
20260507110304 69 233 10.0 20.0 0.00 0.00 0.00 52 1010.9
20260507105805 67 194 11.0 14.0 0.00 0.00 0.00 54 1011.1
20260507105306 67 198 12.0 15.0 0.00 0.00 0.00 54 1011.1
20260507104804 67 199 12.0 16.0 0.00 0.00 0.00 55 1011.3
20260507104305 67 204 7.0 14.0 0.00 0.00 0.00 58 1010.9
20260507103804 67 206 10.0 16.0 0.00 0.00 0.00 57 1011.1
20260507103304 69 185 10.0 16.0 0.00 0.00 0.00 55 1011.0
20260507102306 67 208 12.0 16.0 0.00 0.00 0.00 58 1011.2
20260507101804 66 195 9.0 15.0 0.00 0.00 0.00 59 1011.2
20260507101304 66 212 12.0 14.0 0.00 0.00 0.00 59 1011.1
20260507100804 66 213 11.0 16.0 0.00 0.00 0.00 58 1011.3
20260507100305 66 181 9.0 13.0 0.00 0.00 0.00 60 1011.2
20260507095804 66 175 7.0 12.0 0.00 0.00 0.00 60 1011.1
20260507094804 66 188 9.0 15.0 0.00 0.00 0.00 61 1011.3
20260507094304 64 195 7.0 14.0 0.00 0.00 0.00 62 1011.4
20260507093805 65 195 12.0 16.0 0.00 0.00 0.00 63 1011.2
20260507093304 65 212 12.0 15.0 0.00 0.00 0.00 64 1011.3
20260507092804 66 209 11.0 15.0 0.00 0.00 0.00 62 1011.3
20260507092307 65 185 10.0 17.0 0.00 0.00 0.00 63 1011.2
20260507091804 65 200 13.0 16.0 0.00 0.00 0.00 63 1011.3
20260507091304 64 175 10.0 13.0 0.00 0.00 0.00 66 1011.2
20260507090804 64 190 10.0 14.0 0.00 0.00 0.00 66 1011.2
20260507090304 64 194 9.0 15.0 0.00 0.00 0.00 67 1011.4
20260507085804 63 171 9.0 13.0 0.00 0.00 0.00 67 1011.3
20260507085306 64 192 9.0 16.0 0.00 0.00 0.00 67 1011.2
20260507084804 65 153 10.0 16.0 0.00 0.00 0.00 66 1011.2
20260507084304 64 195 7.0 13.0 0.00 0.00 0.00 68 1011.1
20260507083304 63 185 9.0 15.0 0.00 0.00 0.00 70 1011.3
20260507082804 63 170 7.0 13.0 0.00 0.00 0.00 71 1011.0
20260507082306 63 189 10.0 14.0 0.00 0.00 0.00 70 1011.3
20260507081804 62 164 7.0 13.0 0.00 0.00 0.00 71 1011.1
20260507080804 61 177 7.0 9.0 0.00 0.00 0.00 73 1011.0
20260507080304 61 172 8.0 12.0 0.00 0.00 0.00 74 1011.0
20260507075804 61 176 9.0 12.0 0.00 0.00 0.00 73 1011.1
20260507075307 60 175 8.0 14.0 0.00 0.00 0.00 74 1011.2
20260507074804 60 179 8.0 13.0 0.00 0.00 0.00 73 1010.9
20260507074304 60 150 8.0 13.0 0.00 0.00 0.00 73 1011.0
20260507073804 60 175 7.0 9.0 0.00 0.00 0.00 73 1010.9